Weather History for Newark, NJ

Change the Weather History Date:

Tuesday, December 25, 2012

  Actual Average Record
Temperature  
Mean Temperature 37 °F 34 °F  
Max Temperature 43 °F 41 °F 69 °F (1964)
Min Temperature 31 °F 27 °F 0 °F (1980)
Degree Days  
Heating Degree Days 28 31  
Month to date heating degree days 542 690  
Since 1 July heating degree days 1416 1558  
Cooling Degree Days 0 0  
Month to date cooling degree days 0 0  
Year to date cooling degree days 1450 1192  
Moisture  
Dew Point 31 °F    
Average Humidity 80    
Maximum Humidity 100    
Minimum Humidity 59    
Precipitation  
Precipitation 0.02 in 0.12 in 1.11 in (1945)
Month to date precipitation 2.99 3.13  
Year to date precipitation 34.28 45.57  
Snow  
Snow 0.00 in 0.20 in 3.50 in (2002)
Month to date snowfall T 3.9  
Since 1 July snowfall 6.6 4.3  
Snow Depth 0.00 in    
Sea Level Pressure  
Sea Level Pressure 30.07 in    
Wind  
Wind Speed 11 mph (NNW)    
Max Wind Speed 21 mph    
Max Gust Speed 25 mph    
Visibility 8 miles    
Events Rain    
T = Trace of Precipitation, MM = Missing Value Source: NWS Daily Summary

Daily Weather History Graph

Daily Weather History Graph

Search for Another Location

Airport:

Trip Planner

Search our weather history database for the weather conditions in past years. The results will help you decide how hot, cold, wet, or windy it might be!

Date:

Astronomy

Dec. 25, 2012 Rise Set
Actual Time 7:19 AM EST 4:35 PM EST
Civil Twilight 6:48 AM EST 5:06 PM EST
Nautical Twilight 6:13 AM EST 5:40 PM EST
Astronomical Twilight 5:40 AM EST 6:13 PM EST
Moon 2:41 PM EST (12/25) 4:48 AM EST (12/25)
Length of Visible Light 10h 17m
Length of Day
9h 16m
Waxing Gibbous, 93% of the Moon is Illuminated
Dec 25
Waxing Gibbous
Dec 28
Full
Jan 4
Last Quarter
Jan 11
New
Jan 18
First Quarter

Hourly Weather History & Observations

Time (EST) Temp. Windchill Dew Point Humidity Pressure Visibility Wind Dir Wind Speed Gust Speed Precip Events Conditions
12:51 AM 35.1 °F 28.6 °F 34.0 °F 96% 29.92 in 2.5 mi North 8.1 mph - 0.01 in Rain Light Rain
1:51 AM 36.0 °F 29.6 °F 35.1 °F 97% 29.91 in 2.5 mi North 8.1 mph - 0.00 in Rain Light Rain
2:37 AM 35.6 °F 29.2 °F 35.6 °F 100% 29.92 in 2.5 mi North 8.1 mph - 0.01 in Rain Light Rain
2:51 AM 36.0 °F 29.6 °F 35.1 °F 97% 29.91 in 2.0 mi NNE 8.1 mph - 0.01 in Rain Light Rain
3:51 AM 36.0 °F 30.3 °F 35.1 °F 97% 29.92 in 2.0 mi North 6.9 mph - 0.00 in   Light Drizzle
4:51 AM 36.0 °F 29.6 °F 35.1 °F 97% 29.93 in 2.0 mi NNW 8.1 mph - 0.00 in   Light Drizzle
5:46 AM 35.6 °F 28.6 °F 35.6 °F 100% 29.95 in 2.0 mi NNW 9.2 mph - 0.00 in   Overcast
5:51 AM 36.0 °F 29.0 °F 35.1 °F 97% 29.95 in 2.0 mi NNW 9.2 mph - 0.00 in   Overcast
6:25 AM 35.6 °F 29.2 °F 35.6 °F 100% 29.97 in 7.0 mi NNW 8.1 mph - N/A   Overcast
6:51 AM 36.0 °F 29.0 °F 35.1 °F 97% 29.99 in 7.0 mi NNW 9.2 mph - N/A   Overcast
7:44 AM 37.4 °F 30.8 °F 33.8 °F 87% 30.00 in 9.0 mi NNW 9.2 mph - N/A   Mostly Cloudy
7:51 AM 37.0 °F 30.4 °F 35.1 °F 93% 30.01 in 9.0 mi NNW 9.2 mph - N/A   Mostly Cloudy
8:23 AM 37.4 °F 31.4 °F 35.6 °F 93% 30.02 in 9.0 mi NNW 8.1 mph - N/A   Mostly Cloudy
8:51 AM 37.9 °F 31.5 °F 35.1 °F 89% 30.02 in 10.0 mi NNW 9.2 mph - N/A   Mostly Cloudy
9:46 AM 39.2 °F 30.8 °F 33.8 °F 81% 30.06 in 10.0 mi NNW 15.0 mph - N/A   Mostly Cloudy
9:51 AM 39.0 °F 30.6 °F 32.0 °F 76% 30.06 in 10.0 mi NNW 15.0 mph - N/A   Mostly Cloudy
10:06 AM 39.2 °F 33.0 °F 33.8 °F 81% 30.07 in 10.0 mi NNW 9.2 mph - N/A   Scattered Clouds
10:51 AM 41.0 °F 32.2 °F 33.1 °F 73% 30.07 in 10.0 mi NNW 18.4 mph - N/A   Scattered Clouds
11:51 AM 43.0 °F 35.4 °F 30.9 °F 62% 30.05 in 10.0 mi NW 16.1 mph 23.0 mph N/A   Scattered Clouds
12:51 PM 41.0 °F 32.2 °F 30.0 °F 65% 30.06 in 10.0 mi NW 18.4 mph 25.3 mph N/A   Scattered Clouds
1:12 PM 41.0 °F 32.8 °F 30.2 °F 65% 30.08 in 10.0 mi NW 16.1 mph 21.9 mph N/A   Mostly Cloudy
1:51 PM 39.9 °F 31.1 °F 28.9 °F 65% 30.09 in 10.0 mi NW 17.3 mph - N/A   Mostly Cloudy
2:51 PM 39.9 °F 33.4 °F 28.0 °F 63% 30.10 in 10.0 mi NNW 10.4 mph - N/A   Mostly Cloudy
3:33 PM 39.2 °F 31.6 °F 28.4 °F 65% 30.12 in 10.0 mi NNW 12.7 mph - N/A   Mostly Cloudy
3:51 PM 39.9 °F 32.1 °F 28.0 °F 63% 30.12 in 10.0 mi NNW 13.8 mph - N/A   Mostly Cloudy
4:51 PM 39.0 °F 31.0 °F 27.0 °F 62% 30.14 in 10.0 mi NNW 13.8 mph 19.6 mph N/A   Overcast
5:03 PM 39.2 °F 30.5 °F 26.6 °F 61% 30.15 in 10.0 mi NNW 16.1 mph - N/A   Overcast
5:42 PM 37.4 °F 29.8 °F 26.6 °F 65% 30.18 in 10.0 mi NW 11.5 mph 21.9 mph N/A   Overcast
5:51 PM 39.0 °F 29.9 °F 26.1 °F 60% 30.18 in 10.0 mi NNW 17.3 mph 23.0 mph N/A   Overcast
6:51 PM 37.9 °F 30.9 °F 27.0 °F 65% 30.20 in 10.0 mi North 10.4 mph - N/A   Overcast
7:51 PM 37.9 °F 29.6 °F 25.0 °F 60% 30.22 in 10.0 mi NNW 13.8 mph - N/A   Overcast
8:26 PM 35.6 °F 28.0 °F 28.4 °F 75% 30.23 in 10.0 mi NNE 10.4 mph - N/A   Overcast
8:51 PM 36.0 °F 29.6 °F 27.0 °F 70% 30.23 in 10.0 mi NNE 8.1 mph - N/A   Overcast
9:51 PM 33.1 °F 26.1 °F 26.1 °F 75% 30.25 in 10.0 mi NNE 8.1 mph - N/A   Overcast
10:51 PM 30.9 °F 25.2 °F 25.0 °F 79% 30.26 in 10.0 mi North 5.8 mph - N/A   Mostly Cloudy
11:51 PM 33.1 °F 26.1 °F 26.1 °F 75% 30.26 in 10.0 mi North 8.1 mph - N/A   Mostly Cloudy